When you browse on this site, cookies collect data to enhance your experience and personalize the content and advertising you see.
Visit our Privacy Policy to learn more. By continuing to use the site, you agree to this use of cookies and data.
  • In Czech Republic
  • List of Countries
  • For 7 days
  • Water Temperature
  • Weather Map
  • Weather Widgets
  • user-avatar
    Login

    Hourly Weather La Massana

    Today, 29 January, Wednesday

    Time Temperature Precipitation Wind Pressure Humidity
    00:00 -3°C° 0 mm 1 mps 607 mmHg 69%
    01:00 -3°C° 0 mm 1 mps 607 mmHg 66%
    02:00 -3°C° 0 mm 1 mps 607 mmHg 63%
    03:00 -5°C° 0 mm 2 mps 607 mmHg 61%
    04:00 -5°C° 0 mm 2 mps 607 mmHg 64%
    05:00 -5°C° 0 mm 2 mps 607 mmHg 66%
    06:00 -5°C° 0 mm 2 mps 607 mmHg 69%
    07:00 -4°C° 0 mm 2 mps 608 mmHg 69%
    08:00 0°C° 0 mm 1 mps 609 mmHg 69%
    09:00 +1°C° 0 mm 1 mps 610 mmHg 69%
    10:00 +2°C° 0 mm 1 mps 611 mmHg 69%
    11:00 +3°C° 0 mm 1 mps 611 mmHg 70%
    12:00 +5°C° 0 mm 1 mps 612 mmHg 71%
    13:00 +5°C° 0 mm 1 mps 611 mmHg 73%
    14:00 +4°C° 0 mm 1 mps 611 mmHg 75%
    15:00 +3°C° 0 mm 0 mps 610 mmHg 77%
    16:00 +3°C° 0 mm 1 mps 610 mmHg 76%
    17:00 +1°C° 0 mm 1 mps 609 mmHg 74%
    18:00 0°C° 0 mm 1 mps 609 mmHg 72%
    19:00 -1°C° 0 mm 1 mps 609 mmHg 72%
    20:00 -1°C° 0 mm 1 mps 609 mmHg 73%
    21:00 -1°C° 0 mm 1 mps 609 mmHg 73%
    22:00 -1°C° 0 mm 1 mps 609 mmHg 76%
    23:00 0°C° 0 mm 1 mps 609 mmHg 79%

    Tomorrow, 30 January, Thursday

    Time Temperature Precipitation Wind Pressure Humidity
    00:00 -2°C° 0 mm 2 mps 609 mmHg 81%
    01:00 0°C° 0 mm 1 mps 609 mmHg 83%
    02:00 +1°C° 0 mm 1 mps 609 mmHg 84%
    03:00 +2°C° 0 mm 1 mps 609 mmHg 85%
    04:00 +2°C° 0.2 mm 1 mps 609 mmHg 87%
    05:00 +2°C° 0.2 mm 1 mps 609 mmHg 90%
    06:00 +3°C° 0.2 mm 1 mps 610 mmHg 92%
    07:00 +3°C° 0.1 mm 1 mps 610 mmHg 92%
    08:00 +4°C° 0.1 mm 1 mps 610 mmHg 92%
    09:00 +3°C° 0.1 mm 0 mps 611 mmHg 93%
    10:00 +4°C° 0 mm 1 mps 611 mmHg 92%
    11:00 +5°C° 0 mm 1 mps 611 mmHg 91%
    12:00 +5°C° 0 mm 1 mps 611 mmHg 91%
    13:00 +5°C° 0 mm 1 mps 611 mmHg 91%
    14:00 +5°C° 0 mm 1 mps 610 mmHg 91%
    15:00 +5°C° 0 mm 1 mps 610 mmHg 91%
    16:00 +4°C° 0 mm 1 mps 610 mmHg 92%
    17:00 +3°C° 0 mm 1 mps 610 mmHg 93%
    18:00 +2°C° 0 mm 1 mps 609 mmHg 94%
    19:00 +2°C° 0 mm 1 mps 609 mmHg 94%
    20:00 +2°C° 0 mm 1 mps 609 mmHg 93%
    21:00 +2°C° 0 mm 1 mps 609 mmHg 93%
    22:00 +2°C° 0 mm 1 mps 610 mmHg 92%
    23:00 +2°C° 0 mm 1 mps 610 mmHg 92%

    Day after tomorrow, 31 January, Friday

    Time Temperature Precipitation Wind Pressure Humidity
    00:00 +2°C° 0 mm 1 mps 610 mmHg 91%
    01:00 +2°C° 0 mm 1 mps 610 mmHg 91%
    02:00 +2°C° 0 mm 1 mps 610 mmHg 90%
    03:00 +2°C° 0 mm 1 mps 609 mmHg 89%
    04:00 +2°C° 0.1 mm 1 mps 610 mmHg 90%
    05:00 +2°C° 0.1 mm 1 mps 610 mmHg 91%
    06:00 +2°C° 0.1 mm 1 mps 610 mmHg 92%
    07:00 +3°C° 0 mm 1 mps 610 mmHg 92%
    08:00 +3°C° 0 mm 1 mps 611 mmHg 91%
    09:00 +4°C° 0 mm 1 mps 611 mmHg 91%
    10:00 +5°C° 0 mm 1 mps 612 mmHg 89%
    11:00 +5°C° 0 mm 0 mps 612 mmHg 87%
    12:00 +6°C° 0 mm 0 mps 612 mmHg 85%
    13:00 +5°C° 0 mm 0 mps 612 mmHg 85%
    14:00 +5°C° 0 mm 0 mps 611 mmHg 86%
    15:00 +5°C° 0 mm 0 mps 611 mmHg 87%
    16:00 +5°C° 0 mm 1 mps 611 mmHg 88%
    17:00 +4°C° 0 mm 1 mps 610 mmHg 90%
    18:00 +2°C° 0 mm 1 mps 610 mmHg 92%
    19:00 +2°C° 0 mm 1 mps 610 mmHg 91%
    20:00 +2°C° 0 mm 1 mps 610 mmHg 91%
    21:00 +2°C° 0 mm 1 mps 610 mmHg 90%
    22:00 +2°C° 0 mm 1 mps 609 mmHg 90%
    23:00 +1°C° 0 mm 1 mps 609 mmHg 90%

    1 February, Saturday

    Time Temperature Precipitation Wind Pressure Humidity
    00:00 +1°C° 0 mm 1 mps 609 mmHg 90%
    01:00 +1°C° 0 mm 1 mps 609 mmHg 89%
    02:00 +1°C° 0 mm 1 mps 609 mmHg 88%
    03:00 +1°C° 0 mm 1 mps 608 mmHg 87%
    04:00 +2°C° 0 mm 1 mps 609 mmHg 87%
    05:00 +1°C° 0 mm 2 mps 609 mmHg 86%
    06:00 +1°C° 0 mm 2 mps 609 mmHg 86%
    07:00 +2°C° 0.1 mm 2 mps 610 mmHg 87%
    08:00 +3°C° 0.1 mm 2 mps 610 mmHg 88%
    09:00 +4°C° 0.1 mm 2 mps 611 mmHg 89%
    10:00 +6°C° 0 mm 1 mps 612 mmHg 87%
    11:00 +7°C° 0 mm 1 mps 612 mmHg 84%
    12:00 +8°C° 0 mm 1 mps 613 mmHg 82%
    13:00 +7°C° 0.1 mm 1 mps 613 mmHg 84%
    14:00 +7°C° 0.1 mm 1 mps 613 mmHg 86%
    15:00 +6°C° 0.1 mm 1 mps 612 mmHg 88%
    16:00 +5°C° 0 mm 1 mps 612 mmHg 89%
    17:00 +3°C° 0 mm 2 mps 612 mmHg 91%
    18:00 +2°C° 0 mm 2 mps 612 mmHg 92%
    19:00 +2°C° 0 mm 2 mps 612 mmHg 92%
    20:00 +3°C° 0 mm 1 mps 613 mmHg 92%
    21:00 +3°C° 0 mm 1 mps 613 mmHg 91%
    22:00 +3°C° 0 mm 1 mps 613 mmHg 91%
    23:00 +2°C° 0 mm 2 mps 613 mmHg 91%

    2 February, Sunday

    Time Temperature Precipitation Wind Pressure Humidity
    00:00 +2°C° 0 mm 2 mps 613 mmHg 91%
    01:00 +2°C° 0 mm 2 mps 613 mmHg 88%
    02:00 +2°C° 0 mm 2 mps 613 mmHg 85%
    03:00 +2°C° 0 mm 2 mps 613 mmHg 82%
    04:00 +2°C° 0 mm 2 mps 613 mmHg 78%
    05:00 +2°C° 0 mm 2 mps 613 mmHg 75%
    06:00 +2°C° 0 mm 2 mps 613 mmHg 71%
    07:00 +3°C° 0 mm 2 mps 613 mmHg 69%
    08:00 +5°C° 0 mm 1 mps 614 mmHg 67%
    09:00 +6°C° 0 mm 1 mps 615 mmHg 65%
    10:00 +8°C° 0 mm 1 mps 615 mmHg 64%
    11:00 +10°C° 0 mm 1 mps 616 mmHg 62%
    12:00 +10°C° 0 mm 0 mps 617 mmHg 61%
    13:00 +10°C° 0 mm 0 mps 616 mmHg 65%
    14:00 +10°C° 0 mm 0 mps 616 mmHg 69%
    15:00 +10°C° 0 mm 1 mps 616 mmHg 73%
    16:00 +9°C° 0 mm 1 mps 615 mmHg 74%
    17:00 +7°C° 0 mm 1 mps 614 mmHg 75%
    18:00 +5°C° 0 mm 1 mps 614 mmHg 77%
    19:00 +5°C° 0 mm 1 mps 614 mmHg 74%
    20:00 +5°C° 0 mm 1 mps 614 mmHg 72%
    21:00 +5°C° 0 mm 1 mps 614 mmHg 69%
    22:00 +5°C° 0 mm 1 mps 614 mmHg 67%
    23:00 +5°C° 0 mm 1 mps 614 mmHg 65%

    3 February, Monday

    Time Temperature Precipitation Wind Pressure Humidity
    00:00 +5°C° 0 mm 1 mps 614 mmHg 63%
    01:00 +5°C° 0 mm 1 mps 614 mmHg 62%
    02:00 +5°C° 0 mm 1 mps 614 mmHg 61%
    03:00 +5°C° 0 mm 1 mps 614 mmHg 60%
    04:00 +5°C° 0 mm 1 mps 614 mmHg 59%
    05:00 +5°C° 0 mm 1 mps 613 mmHg 59%
    06:00 +4°C° 0 mm 1 mps 613 mmHg 59%
    07:00 +6°C° 0 mm 1 mps 614 mmHg 59%
    08:00 +7°C° 0 mm 1 mps 615 mmHg 60%
    09:00 +8°C° 0 mm 1 mps 616 mmHg 60%
    10:00 +10°C° 0 mm 1 mps 616 mmHg 59%
    11:00 +11°C° 0 mm 1 mps 616 mmHg 58%
    12:00 +13°C° 0 mm 1 mps 617 mmHg 57%
    13:00 +12°C° 0 mm 1 mps 616 mmHg 59%
    14:00 +12°C° 0 mm 1 mps 616 mmHg 61%
    15:00 +12°C° 0 mm 1 mps 615 mmHg 62%
    16:00 +10°C° 0 mm 1 mps 614 mmHg 65%
    17:00 +8°C° 0 mm 1 mps 613 mmHg 69%
    18:00 +6°C° 0 mm 1 mps 612 mmHg 72%
    19:00 +5°C° 0 mm 1 mps 612 mmHg 69%
    20:00 +5°C° 0 mm 1 mps 612 mmHg 67%
    21:00 +4°C° 0 mm 2 mps 612 mmHg 64%
    22:00 +5°C° 0 mm 1 mps 612 mmHg 67%
    23:00 +5°C° 0 mm 1 mps 612 mmHg 70%
    Show more